| time (UTC) | temp F | wind direction | speed MPH | gust MPH | rain 1hr in | rain 24hr in | rain mn in | humidity % | barometer mb |
| 20260831003305 | 68 | 21 | 1.0 | 2.0 | 0.00 | 0.00 | 0.00 | 85 | 1022.0 |
| 20260831002805 | 68 | 29 | 1.0 | 1.0 | 0.00 | 0.00 | 0.00 | 85 | 1022.0 |
| 20260831002306 | 68 | 5 | 0.0 | 1.0 | 0.00 | 0.00 | 0.00 | 85 | 1022.0 |
| 20260831000805 | 68 | 13 | 0.0 | 1.0 | 0.00 | 0.00 | 0.00 | 85 | 1022.0 |
| 20260831000304 | 68 | 15 | 0.0 | 2.0 | 0.00 | 0.00 | 0.00 | 85 | 1022.0 |
| 20260830234805 | 69 | 289 | 0.0 | 0.0 | 0.00 | 0.00 | 0.00 | 85 | 1022.0 |
| 20260830230804 | 69 | 305 | 1.0 | 3.0 | 0.00 | 0.00 | 0.00 | 84 | 1022.0 |
| 20260830230305 | 69 | 331 | 0.0 | 1.0 | 0.00 | 0.00 | 0.00 | 84 | 1022.0 |
| 20260830225306 | 69 | 21 | 1.0 | 2.0 | 0.00 | 0.00 | 0.00 | 84 | 1022.0 |
| 20260830224804 | 69 | 22 | 1.0 | 3.0 | 0.00 | 0.00 | 0.00 | 84 | 1022.0 |
| 20260830224305 | 69 | 15 | 0.0 | 0.0 | 0.00 | 0.00 | 0.00 | 83 | 1022.0 |
| 20260830223804 | 69 | 15 | 1.0 | 3.0 | 0.00 | 0.00 | 0.00 | 83 | 1022.0 |
| 20260830223304 | 69 | 35 | 1.0 | 2.0 | 0.00 | 0.00 | 0.00 | 83 | 1022.0 |
| 20260830222805 | 69 | 35 | 0.0 | 3.0 | 0.00 | 0.00 | 0.00 | 82 | 1022.0 |
| 20260830221304 | 69 | 37 | 2.0 | 3.0 | 0.00 | 0.00 | 0.00 | 82 | 1022.0 |
| 20260830220805 | 69 | 25 | 0.0 | 2.0 | 0.00 | 0.00 | 0.00 | 81 | 1022.0 |
| 20260830220305 | 69 | 25 | 1.0 | 3.0 | 0.00 | 0.00 | 0.00 | 81 | 1022.0 |
| 20260830215805 | 69 | 23 | 1.0 | 3.0 | 0.00 | 0.00 | 0.00 | 81 | 1022.0 |
| 20260830215305 | 70 | 33 | 0.0 | 2.0 | 0.00 | 0.00 | 0.00 | 81 | 1022.0 |
| 20260830214805 | 70 | 31 | 0.0 | 2.0 | 0.00 | 0.00 | 0.00 | 81 | 1022.0 |
| 20260830213805 | 70 | 74 | 0.0 | 3.0 | 0.00 | 0.00 | 0.00 | 80 | 1022.0 |
| 20260830213305 | 70 | 42 | 1.0 | 3.0 | 0.00 | 0.00 | 0.00 | 80 | 1022.0 |
| 20260830212805 | 70 | 35 | 1.0 | 3.0 | 0.00 | 0.00 | 0.00 | 79 | 1022.0 |
| 20260830210304 | 71 | 33 | 0.0 | 2.0 | 0.00 | 0.00 | 0.00 | 77 | 1021.0 |
| 20260830205804 | 71 | 0 | 1.0 | 2.0 | 0.00 | 0.00 | 0.00 | 77 | 1021.0 |
| 20260830205306 | 71 | 44 | 0.0 | 2.0 | 0.00 | 0.00 | 0.00 | 77 | 1021.0 |
| 20260830201804 | 72 | 200 | 1.0 | 3.0 | 0.00 | 0.00 | 0.00 | 76 | 1021.0 |
| 20260830201305 | 72 | 200 | 1.0 | 2.0 | 0.00 | 0.00 | 0.00 | 76 | 1021.0 |
| 20260830200805 | 72 | 187 | 1.0 | 3.0 | 0.00 | 0.00 | 0.00 | 75 | 1021.0 |
| 20260830200305 | 72 | 220 | 0.0 | 1.0 | 0.00 | 0.00 | 0.00 | 75 | 1021.0 |
| 20260830195804 | 72 | 220 | 0.0 | 3.0 | 0.00 | 0.00 | 0.00 | 75 | 1021.0 |
| 20260830195305 | 72 | 220 | 2.0 | 3.0 | 0.00 | 0.00 | 0.00 | 75 | 1021.0 |
| 20260830193305 | 73 | 239 | 0.0 | 3.0 | 0.00 | 0.00 | 0.00 | 74 | 1021.0 |
| 20260830192805 | 73 | 201 | 2.0 | 3.0 | 0.00 | 0.00 | 0.00 | 74 | 1021.0 |
| 20260830192305 | 73 | 235 | 1.0 | 3.0 | 0.00 | 0.00 | 0.00 | 73 | 1021.0 |
| 20260830190304 | 74 | 233 | 2.0 | 3.0 | 0.00 | 0.00 | 0.00 | 72 | 1021.0 |
| 20260830185805 | 74 | 333 | 2.0 | 5.0 | 0.00 | 0.00 | 0.00 | 72 | 1021.0 |
| 20260830185306 | 74 | 200 | 3.0 | 5.0 | 0.00 | 0.00 | 0.00 | 72 | 1021.0 |
| 20260830184806 | 74 | 251 | 4.0 | 6.0 | 0.00 | 0.00 | 0.00 | 71 | 1021.0 |
| 20260830184304 | 74 | 208 | 3.0 | 6.0 | 0.00 | 0.00 | 0.00 | 71 | 1021.0 |
| 20260830183805 | 74 | 218 | 3.0 | 5.0 | 0.00 | 0.00 | 0.00 | 72 | 1021.0 |
| 20260830183304 | 74 | 252 | 3.0 | 6.0 | 0.00 | 0.00 | 0.00 | 71 | 1021.0 |
| 20260830182805 | 74 | 257 | 3.0 | 5.0 | 0.00 | 0.00 | 0.00 | 71 | 1021.0 |
| 20260830180805 | 76 | 258 | 1.0 | 5.0 | 0.00 | 0.00 | 0.00 | 68 | 1021.0 |
| 20260830174804 | 76 | 265 | 3.0 | 7.0 | 0.00 | 0.00 | 0.00 | 67 | 1021.0 |
| 20260830174305 | 76 | 285 | 2.0 | 6.0 | 0.00 | 0.00 | 0.00 | 67 | 1021.0 |
| 20260830171304 | 77 | 270 | 4.0 | 8.0 | 0.00 | 0.00 | 0.00 | 64 | 1021.0 |
| 20260830170805 | 77 | 270 | 3.0 | 9.0 | 0.00 | 0.00 | 0.00 | 66 | 1021.0 |
| 20260830170304 | 77 | 268 | 3.0 | 7.0 | 0.00 | 0.00 | 0.00 | 65 | 1021.0 |
| 20260830165804 | 77 | 243 | 3.0 | 9.0 | 0.00 | 0.00 | 0.00 | 65 | 1021.0 |
| 20260830165306 | 76 | 275 | 5.0 | 7.0 | 0.00 | 0.00 | 0.00 | 67 | 1021.0 |
| 20260830164804 | 76 | 257 | 4.0 | 8.0 | 0.00 | 0.00 | 0.00 | 67 | 1021.0 |
| 20260830164305 | 76 | 259 | 5.0 | 8.0 | 0.00 | 0.00 | 0.00 | 66 | 1021.0 |
| 20260830163804 | 76 | 242 | 5.0 | 9.0 | 0.00 | 0.00 | 0.00 | 66 | 1021.0 |
| 20260830163304 | 77 | 272 | 3.0 | 6.0 | 0.00 | 0.00 | 0.00 | 67 | 1021.0 |
| 20260830162804 | 77 | 267 | 4.0 | 10.0 | 0.00 | 0.00 | 0.00 | 65 | 1021.0 |
| 20260830162306 | 76 | 212 | 3.0 | 7.0 | 0.00 | 0.00 | 0.00 | 67 | 1021.0 |
| 20260830161804 | 76 | 208 | 4.0 | 8.0 | 0.00 | 0.00 | 0.00 | 66 | 1021.0 |
| 20260830161304 | 76 | 230 | 5.0 | 9.0 | 0.00 | 0.00 | 0.00 | 66 | 1021.0 |
| 20260830160804 | 77 | 192 | 5.0 | 8.0 | 0.00 | 0.00 | 0.00 | 65 | 1021.0 |
| 20260830160304 | 76 | 251 | 3.0 | 7.0 | 0.00 | 0.00 | 0.00 | 66 | 1021.0 |
| 20260830155804 | 76 | 218 | 4.0 | 8.0 | 0.00 | 0.00 | 0.00 | 66 | 1021.0 |
| 20260830155306 | 76 | 279 | 4.0 | 7.0 | 0.00 | 0.00 | 0.00 | 68 | 1021.0 |
| 20260830154804 | 76 | 263 | 4.0 | 7.0 | 0.00 | 0.00 | 0.00 | 67 | 1021.0 |
| 20260830154305 | 77 | 242 | 4.0 | 6.0 | 0.00 | 0.00 | 0.00 | 66 | 1021.0 |
| 20260830152804 | 76 | 236 | 3.0 | 7.0 | 0.00 | 0.00 | 0.00 | 68 | 1021.0 |
| 20260830152306 | 75 | 251 | 5.0 | 12.0 | 0.00 | 0.00 | 0.00 | 68 | 1021.0 |
| 20260830151805 | 76 | 268 | 3.0 | 8.0 | 0.00 | 0.00 | 0.00 | 67 | 1021.0 |
| 20260830150305 | 76 | 221 | 5.0 | 10.0 | 0.00 | 0.00 | 0.00 | 64 | 1021.0 |
| 20260830145806 | 76 | 214 | 7.0 | 10.0 | 0.00 | 0.00 | 0.00 | 66 | 1021.0 |
| 20260830144805 | 76 | 210 | 4.0 | 10.0 | 0.00 | 0.00 | 0.00 | 65 | 1021.0 |
| 20260830144306 | 77 | 205 | 5.0 | 12.0 | 0.00 | 0.00 | 0.00 | 62 | 1021.0 |
| 20260830142805 | 77 | 186 | 5.0 | 8.0 | 0.00 | 0.00 | 0.00 | 62 | 1021.0 |
| 20260830134806 | 76 | 201 | 5.0 | 7.0 | 0.00 | 0.00 | 0.00 | 65 | 1021.0 |
| 20260830133305 | 78 | 198 | 5.0 | 7.0 | 0.00 | 0.00 | 0.00 | 63 | 1022.0 |
| 20260830132805 | 77 | 211 | 5.0 | 7.0 | 0.00 | 0.00 | 0.00 | 64 | 1022.0 |
| 20260830132306 | 77 | 187 | 5.0 | 7.0 | 0.00 | 0.00 | 0.00 | 64 | 1022.0 |
| 20260830131806 | 77 | 224 | 3.0 | 7.0 | 0.00 | 0.00 | 0.00 | 64 | 1022.0 |
| 20260830131305 | 75 | 214 | 5.0 | 7.0 | 0.00 | 0.00 | 0.00 | 67 | 1022.0 |
| 20260830130806 | 76 | 182 | 4.0 | 9.0 | 0.00 | 0.00 | 0.00 | 66 | 1022.0 |
| 20260830130305 | 76 | 191 | 5.0 | 8.0 | 0.00 | 0.00 | 0.00 | 67 | 1022.0 |
| 20260830125805 | 77 | 243 | 5.0 | 7.0 | 0.00 | 0.00 | 0.00 | 67 | 1022.0 |
| 20260830125306 | 77 | 244 | 5.0 | 7.0 | 0.00 | 0.00 | 0.00 | 66 | 1022.0 |
| 20260830124805 | 77 | 208 | 5.0 | 8.0 | 0.00 | 0.00 | 0.00 | 65 | 1022.0 |
| 20260830124305 | 76 | 210 | 4.0 | 7.0 | 0.00 | 0.00 | 0.00 | 70 | 1022.0 |
| 20260830123806 | 76 | 224 | 5.0 | 7.0 | 0.00 | 0.00 | 0.00 | 68 | 1022.0 |
| 20260830123305 | 76 | 221 | 5.0 | 10.0 | 0.00 | 0.00 | 0.00 | 68 | 1022.0 |
| 20260830122806 | 76 | 213 | 6.0 | 8.0 | 0.00 | 0.00 | 0.00 | 67 | 1022.0 |
| 20260830121305 | 76 | 217 | 5.0 | 10.0 | 0.00 | 0.00 | 0.00 | 70 | 1022.0 |
| 20260830112306 | 73 | 201 | 3.0 | 7.0 | 0.00 | 0.00 | 0.00 | 71 | 1022.0 |
| 20260830111806 | 75 | 204 | 3.0 | 7.0 | 0.00 | 0.00 | 0.00 | 69 | 1022.0 |
| 20260830111305 | 75 | 212 | 3.0 | 6.0 | 0.00 | 0.00 | 0.00 | 69 | 1022.0 |
| 20260830110805 | 74 | 172 | 3.0 | 5.0 | 0.00 | 0.00 | 0.00 | 71 | 1022.0 |
| 20260830110306 | 74 | 232 | 3.0 | 6.0 | 0.00 | 0.00 | 0.00 | 70 | 1022.0 |
| 20260830105806 | 74 | 223 | 3.0 | 6.0 | 0.00 | 0.00 | 0.00 | 71 | 1022.0 |
| 20260830100805 | 73 | 209 | 3.0 | 5.0 | 0.00 | 0.00 | 0.00 | 72 | 1007.0 |
| 20260830100305 | 73 | 212 | 3.0 | 5.0 | 0.00 | 0.00 | 0.00 | 72 | 1007.0 |
| 20260830095805 | 72 | 222 | 3.0 | 6.0 | 0.00 | 0.00 | 0.00 | 74 | 1007.0 |
| 20260830095306 | 72 | 232 | 2.0 | 3.0 | 0.00 | 0.00 | 0.00 | 75 | 1008.9 |
| 20260830094805 | 72 | 237 | 2.0 | 3.0 | 0.00 | 0.00 | 0.00 | 74 | 1002.9 |
| 20260830094306 | 72 | 257 | 1.0 | 2.0 | 0.00 | 0.00 | 0.00 | 75 | 1009.5 |
| 20260830091805 | 71 | 251 | 2.0 | 3.0 | 0.00 | 0.00 | 0.00 | 75 | 1005.9 |
| 20260830091305 | 71 | 286 | 2.0 | 5.0 | 0.00 | 0.00 | 0.00 | 75 | 1007.5 |
| 20260830090805 | 71 | 248 | 2.0 | 6.0 | 0.00 | 0.00 | 0.00 | 75 | 1003.6 |
| 20260830090305 | 71 | 237 | 4.0 | 6.0 | 0.00 | 0.00 | 0.00 | 74 | 1003.7 |
| 20260830085805 | 70 | 276 | 2.0 | 5.0 | 0.00 | 0.00 | 0.00 | 75 | 1002.0 |
| 20260830084305 | 70 | 268 | 3.0 | 5.0 | 0.00 | 0.00 | 0.00 | 74 | 1003.8 |
| 20260830083805 | 70 | 260 | 3.0 | 5.0 | 0.00 | 0.00 | 0.00 | 75 | 1009.5 |
| 20260830083305 | 70 | 267 | 3.0 | 5.0 | 0.00 | 0.00 | 0.00 | 74 | 1006.7 |
| 20260830073805 | 67 | 346 | 2.0 | 3.0 | 0.00 | 0.00 | 0.00 | 71 | 1011.7 |
| 20260830073305 | 67 | 343 | 1.0 | 3.0 | 0.00 | 0.00 | 0.00 | 69 | 1008.8 |
| 20260830072805 | 67 | 8 | 2.0 | 5.0 | 0.00 | 0.00 | 0.00 | 69 | 1013.3 |
| 20260830072306 | 67 | 29 | 2.0 | 3.0 | 0.00 | 0.00 | 0.00 | 69 | 1011.5 |
| 20260830071806 | 67 | 71 | 2.0 | 3.0 | 0.00 | 0.00 | 0.00 | 70 | 1011.9 |
| 20260830071305 | 67 | 51 | 1.0 | 3.0 | 0.00 | 0.00 | 0.00 | 71 | 1012.6 |
| 20260830070305 | 66 | 34 | 3.0 | 6.0 | 0.00 | 0.00 | 0.00 | 70 | 1012.0 |
| 20260830065805 | 66 | 27 | 3.0 | 7.0 | 0.00 | 0.00 | 0.00 | 71 | 1009.8 |
| 20260830065306 | 66 | 50 | 2.0 | 7.0 | 0.00 | 0.00 | 0.00 | 70 | 1011.8 |
| 20260830064305 | 67 | 32 | 2.0 | 3.0 | 0.00 | 0.00 | 0.00 | 72 | 1013.2 |
| 20260830063805 | 67 | 36 | 3.0 | 9.0 | 0.00 | 0.00 | 0.00 | 72 | 1009.9 |
| 20260830063305 | 67 | 42 | 2.0 | 6.0 | 0.00 | 0.00 | 0.00 | 73 | 1012.7 |
| 20260830061805 | 67 | 41 | 1.0 | 5.0 | 0.00 | 0.00 | 0.00 | 74 | 1011.4 |
| 20260830061305 | 66 | 33 | 4.0 | 7.0 | 0.00 | 0.00 | 0.00 | 73 | 1012.5 |
| 20260830060805 | 66 | 50 | 3.0 | 6.0 | 0.00 | 0.00 | 0.00 | 72 | 1012.5 |
| 20260830060305 | 66 | 39 | 3.0 | 9.0 | 0.00 | 0.00 | 0.00 | 72 | 1011.9 |
| 20260830055805 | 66 | 18 | 3.0 | 9.0 | 0.00 | 0.00 | 0.00 | 71 | 1012.5 |
| 20260830055307 | 66 | 45 | 2.0 | 5.0 | 0.00 | 0.00 | 0.00 | 71 | 1013.3 |
| 20260830054305 | 66 | 31 | 2.0 | 5.0 | 0.00 | 0.00 | 0.00 | 73 | 1011.7 |
| 20260830053805 | 66 | 31 | 2.0 | 5.0 | 0.00 | 0.00 | 0.00 | 74 | 1012.3 |
| 20260830052805 | 66 | 60 | 1.0 | 3.0 | 0.00 | 0.00 | 0.00 | 74 | 1014.2 |
| 20260830044805 | 66 | 19 | 3.0 | 7.0 | 0.00 | 0.00 | 0.00 | 73 | 1015.1 |
| 20260830044305 | 66 | 30 | 3.0 | 8.0 | 0.00 | 0.00 | 0.00 | 73 | 1014.5 |
| 20260830043805 | 66 | 26 | 3.0 | 7.0 | 0.00 | 0.00 | 0.00 | 72 | 1013.8 |
| 20260830043305 | 66 | 8 | 3.0 | 5.0 | 0.00 | 0.00 | 0.00 | 72 | 1013.8 |
| 20260830042306 | 66 | 332 | 2.0 | 5.0 | 0.00 | 0.00 | 0.00 | 73 | 1011.8 |
| 20260830041304 | 66 | 84 | 2.0 | 3.0 | 0.00 | 0.00 | 0.00 | 76 | 1014.0 |
| 20260830040305 | 66 | 1 | 1.0 | 3.0 | 0.00 | 0.00 | 0.00 | 77 | 1014.3 |
| 20260830035804 | 66 | 119 | 0.0 | 2.0 | 0.00 | 0.00 | 0.00 | 78 | 1014.2 |
| 20260830032306 | 65 | 355 | 2.0 | 3.0 | 0.00 | 0.00 | 0.00 | 80 | 1014.3 |
| 20260830030805 | 66 | 4 | 2.0 | 3.0 | 0.00 | 0.00 | 0.00 | 83 | 1014.6 |
| 20260830030305 | 66 | 7 | 1.0 | 3.0 | 0.00 | 0.00 | 0.00 | 83 | 1015.5 |
| 20260830025804 | 66 | 10 | 1.0 | 3.0 | 0.00 | 0.00 | 0.00 | 83 | 1016.1 |
| 20260830025306 | 66 | 14 | 1.0 | 3.0 | 0.00 | 0.00 | 0.00 | 83 | 1016.1 |
| 20260830024805 | 66 | 13 | 2.0 | 3.0 | 0.00 | 0.00 | 0.00 | 82 | 1016.9 |
| 20260830022306 | 67 | 15 | 2.0 | 3.0 | 0.00 | 0.00 | 0.00 | 81 | 1017.8 |
| 20260830021805 | 67 | 16 | 2.0 | 3.0 | 0.00 | 0.00 | 0.00 | 81 | 1017.0 |
| 20260830021305 | 67 | 17 | 2.0 | 3.0 | 0.00 | 0.00 | 0.00 | 81 | 1016.1 |
| 20260830020804 | 67 | 26 | 2.0 | 3.0 | 0.00 | 0.00 | 0.00 | 81 | 1018.2 |
| 20260830020304 | 67 | 10 | 2.0 | 3.0 | 0.00 | 0.00 | 0.00 | 80 | 1016.8 |
| 20260830015805 | 67 | 21 | 2.0 | 3.0 | 0.00 | 0.00 | 0.00 | 80 | 1016.9 |
| 20260830015306 | 67 | 17 | 1.0 | 3.0 | 0.00 | 0.00 | 0.00 | 79 | 1016.3 |
| 20260830013305 | 67 | 70 | 2.0 | 3.0 | 0.00 | 0.00 | 0.00 | 76 | 1013.9 |
| 20260830011805 | 68 | 7 | 2.0 | 3.0 | 0.00 | 0.00 | 0.00 | 75 | 1010.0 |
| 20260830011305 | 68 | 9 | 1.0 | 3.0 | 0.00 | 0.00 | 0.00 | 75 | 1012.6 |
| 20260830010805 | 68 | 7 | 2.0 | 3.0 | 0.00 | 0.00 | 0.00 | 75 | 1013.1 |